G7TKI-13 Weather Reports


Display with metric or nautical units.
time (UTC)temp
F
wind
direction
speed
MPH
gust
MPH
rain 1hr
in
rain 24hr
in
rain mn
in
humidity
%
barometer
mb
20260505181753 55 0.0 0.0 0.00 0.00 0.00 78 1015.3
20260505180741 55 0.0 0.0 0.00 0.00 0.00 78 1015.2
20260505175716 55 0.0 0.0 0.00 0.00 0.00 77 1015.2
20260505174728 55 0.0 0.0 0.00 0.00 0.00 77 1015.2
20260505173700 55 0.0 0.0 0.00 0.00 0.00 76 1015.2
20260505172707 56 0.0 0.0 0.00 0.00 0.00 75 1015.3
20260505171644 56 0.0 0.0 0.00 0.00 0.00 75 1015.2
20260505170636 56 143 0.0 1.0 0.00 0.00 0.00 74 1015.3
20260505165634 56 0.0 0.0 0.00 0.00 0.00 73 1015.2
20260505164455 0 0.0 0.0 0.00 0.00 0.00 1015.2
20260505163335 57 0.0 0.0 0.00 0.00 0.00 72 1015.3
20260505162235 58 0.0 0.0 0.00 0.00 0.00 70 1015.2
20260505161035 58 88 1.0 2.0 0.00 0.00 0.00 66 1015.4
20260505152836 60 130 1.0 2.0 0.00 0.00 0.00 64 1015.6
20260505151855 60 0.0 0.0 0.00 0.00 0.00 63 1015.3
20260505150734 59 139 1.0 1.0 0.00 0.00 0.00 64 1015.5
20260505124549 66 47 0.0 1.0 0.00 0.01 0.00 49 1015.8
20260505123538 66 24 1.0 2.0 0.00 0.01 0.00 49 1015.8
20260505122535 66 12 1.0 1.0 0.00 0.01 0.00 48 1015.7
20260505121522 66 0.0 0.0 0.00 0.01 0.00 51 1015.7
20260505120516 67 45 2.0 2.0 0.00 0.01 0.00 50 1015.9
20260505115508 66 0.0 0.0 0.00 0.01 0.00 52 1015.8
20260505114434 63 345 1.0 3.0 0.00 0.01 0.00 55 1015.8
20260505113334 63 341 3.0 6.0 0.00 0.01 0.00 54 1016.0
20260505112308 62 346 1.0 1.0 0.00 0.01 0.00 55 1016.1
20260505111301 64 0.0 0.0 0.00 0.01 0.00 54 1016.0
20260505110244 62 309 2.0 3.0 0.00 0.01 0.00 56 1016.3
20260505102221 63 4 4.0 6.0 0.00 0.01 0.00 54 1016.6
20260505101253 59 0.0 0.0 0.00 0.01 0.00 60 1016.6
20260505100146 60 312 0.0 1.0 0.00 0.01 0.00 60 1016.6
20260505095138 61 25 1.0 2.0 0.00 0.01 0.00 57 1016.6
20260505094136 60 41 1.0 1.0 0.00 0.01 0.00 57 1016.7
20260505093122 58 15 1.0 2.0 0.00 0.01 0.00 60 1016.9
20260505092116 59 0.0 0.0 0.00 0.01 0.00 63 1016.8
20260505091108 56 23 2.0 2.0 0.00 0.01 0.00 65 1016.8
20260505090121 59 338 4.0 6.0 0.00 0.01 0.00 66 1016.6
20260505085050 58 41 1.0 2.0 0.00 0.01 0.00 71 1016.7
20260505084042 55 42 1.0 1.0 0.00 0.01 0.00 77 1016.7
20260505083034 55 312 1.0 2.0 0.00 0.01 0.00 79 1016.8
20260505082049 54 4 3.0 3.0 0.00 0.01 0.00 79 1017.0
20260505081041 54 334 1.0 2.0 0.00 0.01 0.00 81 1016.9
20260505080013 53 0.0 0.0 0.00 0.01 0.00 82 1016.9
20260505074501 51 0.0 0.0 0.00 0.01 0.00 85 1017.1
20260505073455 51 2 1.0 2.0 0.00 0.01 0.00 85 1017.1
20260505072440 53 9 1.0 2.0 0.00 0.01 0.00 84 1016.9
20260505071438 51 0 2.0 3.0 0.00 0.01 0.00 87 1016.9
20260505070436 51 325 1.0 2.0 0.00 0.01 0.00 87 1017.1
20260505065434 51 321 1.0 2.0 0.00 0.01 0.00 88 1017.2
20260505064429 50 338 2.0 2.0 0.00 0.01 0.00 91 1017.3
20260505063421 49 0.0 0.0 0.00 0.01 0.00 93 1017.4
20260505062413 49 27 1.0 2.0 0.00 0.01 0.00 94 1017.4
20260505061425 49 0.0 0.0 0.00 0.01 0.00 94 1017.4
20260505060356 48 0.0 0.0 0.00 0.01 0.00 95 1017.4
20260505055349 48 0.0 0.0 0.00 0.01 0.00 95 1017.4
20260505054335 47 0.0 0.0 0.00 0.01 0.00 95 1017.4
20260505053332 47 0.0 0.0 0.00 0.01 0.00 95 1017.2
20260505052322 46 0.0 0.0 0.00 0.01 0.00 94 1017.7
20260505051317 47 0.0 0.0 0.00 0.01 0.00 94 1017.4
20260505050318 47 0.0 0.0 0.00 0.01 0.00 94 1017.0
20260505041237 48 0.0 0.0 0.00 0.01 0.00 94 1017.3
20260505040234 49 0.0 0.0 0.00 0.01 0.00 94 1017.3
20260505035228 48 0.0 0.0 0.00 0.01 0.00 94 1017.4
20260505034240 49 0.0 0.0 0.00 0.01 0.00 94 1017.5
20260505033212 48 0.0 0.0 0.00 0.01 0.00 94 1017.5
20260505032205 48 0.0 0.0 0.00 0.01 0.00 94 1017.4
20260505031217 48 0.0 0.0 0.00 0.01 0.00 94 1017.4
20260505030209 48 0.0 0.0 0.00 0.01 0.00 93 1017.5
20260505025138 48 0.0 0.0 0.00 0.01 0.00 93 1017.5
20260505024137 48 0.0 0.0 0.00 0.01 0.00 92 1017.3
20260505023135 48 0.0 0.0 0.00 0.01 0.00 92 1017.5
20260505022133 49 0.0 0.0 0.00 0.01 0.00 92 1017.4
20260505021121 49 0.0 0.0 0.00 0.01 0.00 92 1017.7
20260505020117 49 128 0.0 1.0 0.00 0.01 0.00 91 1017.7
20260505015109 50 92 1.0 1.0 0.00 0.01 0.00 91 1017.9
20260505014100 50 0.0 0.0 0.00 0.01 0.00 91 1017.9
20260505013112 50 0.0 0.0 0.00 0.01 0.00 91 1017.7
20260505012039 50 0.0 0.0 0.00 0.01 0.00 91 1017.9
20260505011038 50 0.0 0.0 0.00 0.01 0.00 91 1017.9
20260505010036 50 0.0 0.0 0.00 0.01 0.00 90 1018.3
20260505005034 50 0.0 0.0 0.00 0.01 0.00 90 1018.0
20260505004029 50 84 1.0 1.0 0.00 0.01 0.00 90 1018.3
20260505003020 50 0.0 0.0 0.00 0.02 0.00 90 1018.2
20260505002133 50 0.0 0.0 0.00 0.05 0.00 90 1018.3
20260505001005 50 0.0 0.0 0.00 0.12 0.00 89 1018.4
20260504235956 51 0.0 0.0 0.00 0.14 0.14 89 1018.7
20260504234949 51 0.0 0.0 0.00 0.14 0.14 89 1018.4
20260504233940 51 47 0.0 1.0 0.00 0.14 0.14 89 1018.5
20260504232938 51 301 1.0 2.0 0.00 0.14 0.14 89 1018.7
20260504231936 51 0.0 0.0 0.00 0.14 0.14 89 1018.6
20260504230943 51 0.0 0.0 0.00 0.14 0.14 89 1018.7
20260504225921 51 0.0 0.0 0.00 0.14 0.14 89 1018.6
20260504224917 52 192 0.0 1.0 0.00 0.14 0.14 89 1018.8
20260504223909 52 14 0.0 1.0 0.00 0.14 0.14 88 1018.6
20260504222901 52 0.0 0.0 0.00 0.14 0.14 88 1018.9
20260504221853 53 0.0 0.0 0.00 0.14 0.14 88 1018.8
20260504220841 53 47 1.0 2.0 0.00 0.14 0.14 87 1018.8
20260504215839 53 341 1.0 2.0 0.00 0.14 0.14 87 1018.7
20260504214837 53 0.0 0.0 0.00 0.14 0.14 86 1018.8
20260504213835 53 322 1.0 1.0 0.00 0.14 0.14 86 1018.6
20260504212829 54 0.0 0.0 0.00 0.14 0.14 86 1018.8
20260504211820 54 14 1.0 1.0 0.00 0.14 0.14 85 1018.8
20260504210808 54 0.0 0.0 0.00 0.14 0.14 86 1018.8
20260504205804 54 0.0 0.0 0.00 0.14 0.14 85 1018.7
20260504204757 54 40 0.0 1.0 0.00 0.14 0.14 85 1018.8
20260504203806 54 10 2.0 2.0 0.00 0.14 0.14 85 1018.7
20260504202736 55 292 1.0 2.0 0.00 0.14 0.14 85 1018.6
20260504201730 55 6 1.0 2.0 0.00 0.14 0.14 85 1018.6
20260504200725 55 0.0 0.0 0.00 0.14 0.14 84 1018.2
20260504195737 55 0.0 0.0 0.00 0.14 0.14 84 1018.4
20260504194708 56 21 0.0 1.0 0.00 0.14 0.14 84 1018.3
20260504193700 56 0.0 0.0 0.00 0.14 0.14 84 1018.2
20260504192652 56 0.0 0.0 0.00 0.14 0.14 83 1018.1
20260504191636 56 0.0 0.0 0.00 0.14 0.14 83 1018.1
20260504190635 57 349 0.0 1.0 0.00 0.14 0.14 82 1017.9
20260504185629 58 6 0.0 1.0 0.00 0.14 0.14 81 1017.8
20260504184621 58 0.0 0.0 0.00 0.14 0.14 80 1017.9
20260504183612 58 27 1.0 2.0 0.00 0.14 0.14 80 1018.0
20260504182605 58 340 0.0 1.0 0.00 0.14 0.14 79 1017.9